Location: Breungeshain
(50.5000°N, 9.2000°E)
Time: 01:07:28
(UTC+00:00)

ISS - Pass Details

Date: 22 May 2018
Orbit: 402 x 406 km, 51.6° (Epoch: 21 June)

Event Time Altitude Azimuth Distance (km) Brightness Sun altitude
Rises 22:31:23 0° 267° (W) 2,319 0.1 -18.2°
Reaches altitude 10° 22:33:28 10° 270° (W) 1,460 -0.9 -18.2°
Maximum altitude 22:36:44 71° 355° (N) 430 -3.6 -18.3°
Drops below altitude 10° 22:40:00 10° 81° (E) 1,459 -1.0 -18.4°
Sets 22:42:05 0° 83° (E) 2,319 0.0 -18.5°
